Location: Bald Rock
(37.3738°N, 119.9354°W)
Time: 22:41:39
(UTC+00:00)

Cosmos 2084 - Pass Details

Date: 08 September 2024
Orbit: 497 x 633 km, 62.8° (Epoch: 12 October)

Event Time Altitude Azimuth Distance (km) Brightness Sun altitude
Exits shadow 13:06:20 - 232° (SW) 2,234 5.9 -6.7°
Reaches altitude 10° 13:07:18 10° 236° (SW) 1,867 5.4 -6.6°
Maximum altitude 13:11:17 41° 307° (NW) 810 3.9 -5.8°
Drops below altitude 10° 13:15:07 10° 19° (NNE) 1,797 6.4 -5.0°
Sets 13:17:22 0° 27° (NNE) 2,668 7.4 -4.6°
